Content
SEND FEEDBACK

Daily
Averages
Monthly
Summary
United States of America

PLEASANT HILL, MISSOURI


Home > North America > United States > Missouri
Elevation: 890 feet     Latitude: 38 48N     Longitude: 094 17W

WEATHER
 
SELECT A DAY
Number of Records: 127,553;   Date Range: 3/9/02 - 9/18/14
 
SHARE

PRINT THIS DATA

[ ← Previous Day ]
WEATHER ALMANAC - JANUARY 7, 2013
[ Next Day → ]
[ °C ]   °F
Weather ElementAverageHighLow
Temperature37.7 °F48 °F (3:53 pm)28.9 °F (3:53 am)
Dewpoint22.3 °F26.1 °F (9:53 pm)19 °F (1:53 am)
Humidity55 %67 % (3:53 am)37 % (1:53 pm)
Barometer30.18 in30.30 in (1:53 am)30.07 in (11:53 pm)
Wind Speed11.3 mph19.6 mph (1:53 pm)
Wind Gust27.6 mph (1:53 pm)
Weather ElementAverage
Visibility10 mi
Wind DirectionSSW (198 °)

Weather ElementTotal
Precipitation---
Heating Degree Days26.6 (Base 65)
Averaged from 20 records on January 7, 2013
WEATHER CONDITIONS BREAKOUT
WIND DIRECTION BREAKOUT
WEATHER BY HOUR - JANUARY 7, 2013
[ °C ]   °F
Local TimeTemperatureDewpointHumidityBarometerVisibilityWind DirectionWind SpeedGust SpeedPrecipitationEventsConditions
1:53 AM30.0 °F19.0 °F64 %30.30 in10.0 miSouth (180°)10.4 mphClear
2:53 AM30.0 °F19.0 °F64 %30.29 in10.0 miSouth (180°)11.5 mphClear
3:53 AM28.9 °F19.0 °F67 %30.27 in10.0 miSouth (180°)8.1 mphClear
4:53 AM28.9 °F19.0 °F67 %30.26 in10.0 miSSW (210°)9.2 mphClear
6:53 AM28.9 °F19.0 °F67 %30.26 in10.0 miSSW (200°)10.4 mphClear
7:53 AM28.9 °F19.0 °F67 %30.25 in10.0 miSSW (200°)9.2 mph17.3 mphClear
8:53 AM32.0 °F19.9 °F61 %30.25 in10.0 miSSW (210°)12.7 mph18.4 mphClear
9:53 AM35.1 °F21.0 °F57 %30.27 in10.0 miSouth (190°)12.7 mphClear
10:53 AM39.0 °F21.9 °F50 %30.25 in10.0 miSSW (200°)13.8 mph23.0 mphClear
11:53 AM45.0 °F21.9 °F40 %30.19 in10.0 miSSW (210°)16.1 mph23.0 mphClear
1:53 PM46.9 °F21.9 °F37 %30.12 in10.0 miSSW (210°)19.6 mph27.6 mphClear
2:53 PM46.9 °F23.0 °F39 %30.12 in10.0 miSW (220°)16.1 mphClear
3:53 PM48.0 °F24.1 °F39 %30.11 in10.0 miSSW (200°)9.2 mphClear
5:53 PM43.0 °F25.0 °F49 %30.10 in10.0 miSouth (190°)10.4 mphClear
6:53 PM41.0 °F24.1 °F51 %30.10 in10.0 miSouth (190°)10.4 mphClear
7:53 PM41.0 °F25.0 °F53 %30.09 in10.0 miSSW (200°)10.4 mph19.6 mphClear
8:53 PM39.9 °F25.0 °F55 %30.09 in10.0 miSSW (200°)9.2 mphClear
9:53 PM41.0 °F26.1 °F55 %30.08 in10.0 miSSW (200°)10.4 mphClear
10:53 PM39.9 °F26.1 °F58 %30.08 in10.0 miSSW (200°)8.1 mphClear
11:53 PM39.0 °F26.1 °F60 %30.07 in10.0 miSouth (190°)8.1 mphClear
Hourly data recorded from KLXT, located miles away from Pleasant Hill, Missouri







STORIES FROM OUR PARTNERS